Retour au catalogue

FENGYUN 1C DEB

LostPO
NORAD 31806·DEBRIS·🇨🇳 China

Lancé May 10, 1999 depuis Taiyuan Satellite Launch Center

Loading…

Prochains Passages (prochaines 24 heures)

TLE

PériméSource: Space-Track

Époque: Jul 13, 2018, 01:47 UTC

1 31806U 99025CGU 18194.07496153 -.00000029 +00000-0 +00000-0 0  9993
2 31806 097.7430 058.8338 0365675 036.4273 326.1637 13.63828322555485

Suivez FENGYUN 1C DEB en temps réel avec AllMySat

Download on the App Store